Dewpoint
70 69 64 59 61 60 59 57 55 53 53 59 55 60 58 58 63 62 62 68 67 66 66 65 65 65 65 66 66 66 67 67 67 67 67 67 66 65
67 69 68 60 62 61 59 58 56 55 53 54 56 59 59 58 63 62 62 66 66 65 65 65 65 65 65 65 66 66 66 66 67 67 67 67 67 66
70 69 69 68 60 59 60 59 58 57 55 54 57 62 66 65 62 62 63 63 61 65 65 64 64 64 64 65 65 64 64 64 65 65 65 65 65 66
71 70 69 65 68 68 61 67 63 63 58 63 62 59 66 66 67 67 63 58 59 64 65 63 63 63 64 64 63 63 62 61 61 61 61 62 63 63
72 71 70 68 68 63 64 62 61 62 63 58 58 60 60 62 65 67 66 66 61 64 62 63 63 63 62 61 61 59 56 55 56 58 58 60 60 61
73 72 71 69 68 68 65 66 64 61 64 60 58 57 59 63 62 58 60 62 60 58 61 60 63 63 62 62 60 59 57 56 56 56 57 58 58 58
74 73 72 70 67 67 63 68 69 64 58 59 58 57 57 58 61 58 57 57 60 61 59 58 57 58 59 60 60 61 60 58 57 56 56 56 55 55
74 74 73 69 68 64 64 65 68 68 67 58 57 59 64 62 61 59 57 56 55 62 61 58 57 56 57 56 60 58 58 57 57 57 56 55 54 54
76 74 72 69 69 69 65 63 64 63 65 67 66 64 65 66 67 67 64 61 59 60 64 58 57 55 55 53 59 57 58 57 57 56 56 54 53 53
74 74 74 73 71 70 70 66 67 66 66 63 65 67 69 67 68 67 66 65 63 61 63 57 55 51 52 52 55 55 55 54 54 54 53 52 51 49
74 74 74 74 68 63 70 69 69 69 63 62 63 62 62 62 63 62 60 58 56 56 60 55 51 49 50 49 47 51 47 49 50 51 51 51 50 49
75 76 65 71 62 60 70 70 69 68 67 67 67 63 62 62 60 65 60 57 54 49 56 52 47 46 45 44 43 41 41 49 50 49 49 50 50 47
67 69 72 62 56 57 62 70 69 68 65 66 65 64 63 63 60 62 61 55 50 48 54 53 47 45 41 38 37 38 38 39 40 42 47 48 49 50
69 68 71 58 55 55 60 61 58 61 65 63 62 61 60 59 57 57 60 57 55 57 56 58 47 43 39 36 35 36 37 39 40 40 43 45 49 49
68 67 61 55 53 56 58 58 59 66 64 63 63 62 59 57 59 58 59 60 59 57 51 55 48 46 38 36 35 37 37 38 39 39 40 42 44 46
62 64 60 59 59 61 59 61 68 66 67 65 63 61 58 55 54 52 50 51 48 47 54 53 52 49 40 37 37 36 37 36 36 38 41 44 45 44
61 62 62 63 63 63 64 64 67 67 66 66 61 58 55 54 52 52 50 49 47 45 43 45 53 52 46 48 39 39 39 37 36 39 47 42 43 42
63 63 64 65 64 64 64 64 65 64 62 63 60 56 54 53 51 51 50 49 46 44 43 39 37 38 38 46 49 39 38 37 38 43 46 40 38 38
65 64 64 64 64 63 64 64 62 62 65 59 57 56 53 52 52 50 49 47 45 43 40 37 37 38 36 33 35 50 37 38 40 40 39 38 38 38
66 64 64 64 63 63 62 61 60 60 59 58 56 54 53 52 52 50 48 46 44 40 37 37 38 39 38 36 34 36 45 44 39 39 38 38 38 44
65 65 65 64 63 62 62 62 62 59 58 57 54 53 53 51 50 48 46 42 40 38 37 36 40 46 40 39 39 38 38 45 46 43 40 35 34 34
65 65 64 63 62 64 63 61 60 58 58 55 53 53 52 50 47 45 43 39 38 35 35 36 41 40 39 37 35 39 36 39 44 47 48 44 34 31
64 63 63 63 66 66 62 60 58 55 54 54 52 51 50 47 47 43 40 38 34 34 35 35 35 36 36 36 37 36 41 39 35 35 33 49 49 49
Lifted_Index
-4 -3 -2 -1 -1 -0 1 2 2 2 2 3 3 3 3 3 2 2 2 2 3 4 4 4 4 3 3 3 2 1 1 0 0 -0 -0 -0 0 0
-4 -3 -2 -1 -1 -0 1 2 2 2 2 3 3 2 2 2 2 2 1 2 2 3 3 3 3 3 3 2 2 1 1 0 0 0 0 0 -0 -0
-5 -4 -3 -2 -1 -0 0 1 2 2 2 2 2 2 1 1 1 1 1 1 2 2 3 3 3 2 2 1 1 1 1 1 1 1 1 1 1 0
-6 -5 -4 -3 -2 -1 -0 0 1 1 1 2 2 1 1 0 -0 -0 -0 0 1 2 3 3 3 2 1 1 1 1 2 3 3 3 3 3 2 2
-6 -6 -5 -4 -3 -2 -1 -0 0 0 1 1 1 1 1 0 -0 -1 -1 -0 0 1 3 3 3 2 1 1 1 2 2 3 4 5 5 4 4 4
-7 -7 -6 -5 -3 -2 -2 -1 -0 -0 0 1 1 1 1 0 0 -0 -0 -0 0 1 2 2 2 1 0 1 1 1 2 3 4 4 5 5 5 5
-8 -7 -6 -5 -4 -3 -3 -2 -2 -1 -0 0 0 1 1 0 0 0 0 0 1 1 1 1 0 -0 -1 -0 0 0 1 2 3 4 4 5 5 6
-8 -8 -7 -6 -4 -4 -4 -3 -3 -2 -1 -1 -0 -0 -1 -1 -1 -0 0 0 1 0 -0 -1 -1 -1 -1 -1 -0 0 1 3 3 4 5 6 6 7
-8 -8 -7 -6 -5 -5 -5 -4 -4 -3 -2 -2 -2 -2 -2 -2 -1 -1 -0 -0 0 -0 -1 -1 -1 -1 -0 0 1 2 3 4 5 6 6 7 7 8
-8 -8 -8 -7 -6 -5 -5 -5 -5 -4 -3 -2 -2 -3 -3 -2 -2 -1 -0 -0 -0 -0 -1 -1 0 1 1 1 2 4 5 6 7 7 7 7 7 7
-8 -8 -8 -8 -7 -6 -6 -6 -5 -5 -3 -2 -2 -2 -2 -1 -1 -0 0 0 1 0 0 1 2 2 2 3 4 5 6 7 8 8 7 7 6 5
-8 -8 -8 -8 -7 -7 -6 -6 -6 -5 -4 -3 -2 -2 -1 -0 1 1 1 2 2 2 2 2 3 4 4 5 5 6 6 7 7 7 6 6 5 5
-7 -7 -8 -7 -7 -7 -6 -6 -6 -5 -4 -3 -2 -2 -1 0 2 2 2 3 3 3 3 3 4 5 6 6 7 6 6 6 6 6 5 5 5 5
-7 -7 -7 -7 -6 -6 -6 -6 -5 -4 -3 -2 -2 -1 -0 1 2 3 4 4 4 4 4 4 5 6 7 8 7 7 6 6 6 5 5 5 5 4
-7 -6 -6 -6 -5 -5 -6 -5 -4 -4 -3 -2 -2 -1 0 2 3 4 4 5 5 5 5 5 6 7 8 8 8 7 7 6 6 6 5 5 4 4
-6 -6 -6 -5 -5 -4 -4 -3 -3 -2 -2 -2 -1 -0 1 2 4 5 5 5 6 6 6 6 7 8 9 9 8 7 7 7 6 6 5 4 4 4
-6 -6 -5 -5 -4 -3 -2 -1 -1 -1 -1 -1 -0 1 2 3 4 5 5 6 6 6 6 7 7 8 8 8 8 7 7 7 7 6 5 5 4 4
-5 -5 -5 -4 -3 -1 -0 0 0 -0 -0 0 1 2 3 4 5 5 5 6 6 7 7 8 8 8 8 8 8 7 7 7 7 6 6 6 6 6
-6 -5 -5 -3 -1 0 1 1 1 0 0 1 2 3 4 4 5 5 6 6 7 7 8 9 9 9 8 8 8 8 8 7 7 6 6 7 7 7
-5 -5 -3 -2 -0 0 1 0 0 0 1 1 2 3 4 4 5 5 6 7 8 8 9 9 9 9 8 8 9 8 8 8 7 7 7 8 8 8
-4 -3 -2 -1 -0 -0 -0 -0 -0 1 1 2 3 3 4 5 5 6 7 8 9 9 9 9 9 9 9 9 9 8 8 8 8 8 9 9 9 9
-2 -2 -1 -1 -1 -1 -1 -0 0 1 2 3 3 4 4 5 6 7 8 9 9 10 10 9 9 9 9 9 9 8 8 8 8 9 9 10 10 11
-1 -2 -2 -2 -2 -1 -1 -0 1 2 3 3 4 4 5 6 6 7 8 9 10 10 10 10 9 9 9 9 9 9 8 8 9 9 10 10 11 11